Theta_e
266 267 267 267 267 267 267 267 267 266 268 268 266 266 269 269 265 264 270 266 264 269 272 271 271 272 272 272 273 273 273 274 275 274 275 275 275 275 276 277 277 278 277 277 277 278 278 278 279 280 280 279 279 279 279 279 278 278 277 276 276 275 275 274 274 274 275 274 274 275 275 275 275 275 276 276 276 277 277 278 279 279 280 280 281 281 282
264 265 266 267 265 266 267 267 266 266 266 266 268 267 269 268 267 269 269 269 269 273 272 271 270 272 273 273 273 274 274 273 274 274 274 274 275 276 277 278 278 279 278 278 277 277 278 279 279 279 280 280 280 280 279 278 278 277 276 275 275 275 274 274 274 273 274 274 273 274 274 274 274 275 275 275 276 276 276 276 277 278 279 279 280 280 280
262 264 266 266 266 266 264 266 267 267 265 264 267 268 268 269 268 268 269 269 269 273 275 274 273 273 274 275 274 274 274 275 275 274 274 275 276 277 278 278 278 278 278 278 277 277 277 278 280 280 280 279 279 279 278 279 278 277 276 275 274 274 274 273 273 273 273 273 273 273 273 273 273 274 274 275 275 275 276 276 276 277 278 278 278 279 279
258 262 263 264 265 265 264 263 265 266 266 263 265 265 267 267 265 268 269 267 268 272 274 274 273 273 273 273 274 274 275 275 275 275 275 275 275 276 277 277 278 278 277 277 277 277 277 276 279 280 280 280 280 280 279 279 278 277 275 274 274 273 273 273 273 272 272 272 272 273 273 273 273 273 273 273 274 274 274 275 276 276 276 277 277 278 279
257 261 262 261 263 263 260 260 264 266 268 269 268 266 268 268 270 267 265 266 272 273 274 272 272 270 269 268 269 271 273 274 274 273 273 273 274 274 275 275 276 276 276 276 277 277 277 277 277 280 281 281 280 279 278 277 277 276 274 274 273 272 272 272 272 272 272 272 272 272 272 272 273 273 273 273 273 273 274 274 275 275 276 276 276 277 278
257 260 259 261 258 253 254 266 267 267 265 266 264 265 266 268 267 269 272 271 272 273 273 272 269 268 267 268 269 269 269 270 272 273 272 272 273 274 274 275 275 276 276 277 277 277 277 277 278 280 282 281 279 279 278 278 276 275 274 273 272 272 271 271 271 271 271 271 271 271 272 272 272 272 272 272 273 273 274 274 274 274 274 275 275 276 277
256 258 255 255 251 253 265 268 268 268 268 266 266 267 264 264 265 266 268 269 268 270 272 272 269 268 268 268 268 268 269 270 271 271 272 272 273 273 273 274 275 276 276 277 277 277 278 277 278 279 280 280 279 279 279 277 275 274 273 272 271 271 270 270 270 270 271 271 271 271 271 271 271 271 272 272 272 272 273 273 273 273 273 273 274 275 276
258 255 256 250 252 260 264 265 266 267 267 267 267 265 262 262 263 263 265 266 266 268 270 270 270 269 269 269 268 268 269 270 271 272 272 272 272 272 272 273 273 273 273 273 275 276 278 278 278 280 280 280 280 279 278 276 274 272 271 270 270 270 269 269 270 270 270 270 270 270 270 270 270 270 271 271 271 272 272 272 273 273 273 273 273 274 275
254 256 256 255 261 261 262 262 262 259 261 260 262 259 261 259 262 261 262 263 263 264 267 269 270 271 272 270 268 268 268 270 271 271 270 270 270 270 271 271 270 271 271 270 270 272 273 273 275 278 280 279 278 276 274 273 272 271 270 270 269 269 269 269 269 270 270 270 270 270 270 270 270 270 270 270 270 271 271 271 271 271 271 272 273 274 274
259 255 253 253 252 252 257 263 259 260 257 259 259 259 261 258 260 261 260 260 260 261 263 264 265 268 269 268 267 266 267 269 269 270 270 270 269 269 269 269 269 268 268 268 268 268 269 270 271 275 278 277 275 273 271 271 270 269 268 268 268 268 268 268 268 269 269 269 269 269 269 269 269 269 270 270 270 271 270 270 270 271 271 272 273 273 274
258 255 253 253 251 250 260 257 255 257 257 258 257 260 259 256 257 259 259 258 258 259 259 261 264 267 266 264 264 265 266 268 268 268 269 269 268 268 268 268 267 266 266 266 266 266 266 266 268 271 273 272 271 269 268 267 266 265 265 265 265 266 267 268 267 268 268 268 268 268 268 268 268 268 269 269 269 270 270 270 270 271 271 271 272 273 273
258 257 254 253 252 251 253 251 254 255 257 255 260 255 257 252 256 258 258 257 256 257 258 260 262 263 266 262 262 265 266 267 267 266 267 267 267 267 267 267 267 266 266 265 264 263 263 263 266 268 269 268 267 265 264 264 263 262 262 263 264 265 266 266 266 266 267 266 267 267 267 267 268 268 269 269 269 269 269 270 270 270 271 271 271 272 273
258 259 256 256 255 256 250 251 252 254 256 259 257 254 254 251 254 256 257 256 256 256 256 257 258 259 260 261 263 264 266 265 265 265 266 266 267 267 267 266 267 265 264 263 262 262 262 263 264 265 266 265 263 263 262 261 260 261 261 262 263 264 264 264 265 265 265 265 266 266 266 266 267 266 267 267 268 267 267 269 270 270 271 271 271 271 272
256 257 255 256 254 249 248 251 253 256 256 253 255 250 248 250 254 255 256 255 255 255 255 256 257 258 260 261 261 262 263 263 264 264 264 264 265 266 266 267 266 265 263 262 261 261 261 261 262 263 263 262 261 260 260 259 259 260 261 261 262 263 263 263 263 264 264 264 265 266 265 265 265 265 266 266 266 266 266 267 269 269 270 271 271 271 272
255 256 253 251 252 250 251 251 252 250 253 250 247 249 253 254 253 253 254 254 254 255 254 256 256 258 258 258 259 259 262 262 262 262 262 262 263 263 263 264 265 265 263 262 261 260 260 260 260 261 261 260 259 259 258 258 259 259 260 260 261 261 262 262 262 262 263 263 264 265 264 264 264 264 264 263 263 264 266 267 267 268 269 270 271 271 272
248 252 253 250 247 246 252 250 246 248 249 251 252 251 251 252 252 252 253 254 254 254 254 254 255 256 256 256 257 257 259 261 260 261 261 261 262 262 263 263 263 264 263 262 261 260 260 259 259 259 259 258 258 257 257 258 258 259 259 259 260 260 260 260 260 260 261 262 263 263 262 263 263 262 262 262 262 262 264 265 266 267 268 270 270 271 271
248 247 247 249 249 251 252 252 250 251 252 252 252 252 252 251 251 253 252 252 253 254 254 254 255 255 255 255 256 256 257 258 258 258 259 259 260 260 261 261 262 262 262 262 261 260 260 259 258 258 258 256 256 255 257 257 257 257 257 258 258 258 258 259 258 259 259 260 261 261 261 262 261 261 260 261 261 261 262 264 266 266 267 268 268 269 270
251 252 252 252 252 252 252 253 253 251 252 253 252 252 251 251 252 252 251 252 253 254 254 252 254 253 254 254 255 255 256 257 257 258 258 258 259 259 259 260 260 260 261 261 260 260 259 259 258 258 257 256 255 256 257 257 257 256 256 257 257 258 258 258 258 258 258 259 259 259 260 260 260 260 258 258 258 260 260 262 265 266 266 268 268 269 269
249 244 249 249 250 251 251 251 252 253 252 252 252 252 251 251 252 252 252 252 252 253 253 252 252 252 253 253 253 254 254 255 255 256 256 256 257 257 257 258 259 258 258 258 258 258 258 258 258 257 256 256 256 256 256 257 257 256 256 256 256 257 257 258 258 259 258 259 259 259 259 260 259 259 260 259 259 258 258 258 263 265 266 267 267 268 269
247 247 247 248 250 250 251 251 250 250 251 251 252 252 252 252 252 252 251 252 252 253 252 252 251 252 253 252 252 252 253 254 254 254 254 255 255 256 256 257 258 257 257 256 256 256 256 257 257 257 256 256 256 256 256 256 256 256 256 256 255 255 256 257 257 259 258 259 259 258 258 259 258 259 259 259 259 260 260 261 263 265 266 267 268 268 269
248 249 250 248 251 251 251 251 251 251 251 251 251 251 251 251 251 251 251 251 251 252 251 252 251 250 251 251 251 251 252 252 253 253 253 254 254 255 254 255 256 256 256 255 255 255 255 256 256 256 255 255 255 255 255 255 255 254 255 255 255 256 256 256 257 258 258 258 258 258 258 258 259 259 259 259 263 265 267 267 266 266 267 268 269 270 271
246 244 246 247 245 246 250 250 250 250 251 251 250 250 250 250 250 250 249 250 251 252 251 251 251 249 250 250 251 250 251 251 251 252 252 253 253 253 254 254 254 255 255 254 253 253 254 254 255 255 254 254 254 255 254 255 255 253 254 254 255 255 256 256 257 258 257 257 257 257 257 257 258 258 262 264 266 266 266 268 268 271 272 270 271 272 271
245 247 248 248 247 247 248 250 250 251 251 250 249 249 249 249 250 250 249 248 249 250 250 251 250 249 249 249 250 249 250 250 251 251 252 251 251 252 252 251 251 252 253 253 252 252 253 253 253 254 254 254 253 254 254 254 254 253 254 254 254 254 255 255 257 257 257 256 256 255 256 257 257 257 258 260 266 268 268 266 267 270 272 272 272 272 270
246 248 248 249 247 245 248 249 249 251 250 249 248 249 249 249 249 249 249 248 248 248 249 250 250 249 249 249 249 248 249 250 250 251 252 252 251 251 251 250 250 250 252 252 252 252 252 252 252 253 253 253 253 253 253 253 254 253 254 254 253 254 255 256 257 257 257 257 257 257 257 257 257 258 258 258 259 263 264 265 267 269 270 270 270 270 270
245 248 249 248 247 248 248 249 250 251 249 249 248 248 248 248 248 249 248 248 249 249 248 248 249 249 248 248 248 248 248 249 250 251 251 251 251 250 250 250 249 250 251 251 251 251 251 251 251 252 252 253 253 253 253 253 253 253 253 253 253 254 255 256 256 256 257 256 256 256 256 257 257 258 257 258 257 258 261 263 265 266 267 268 268 268 268
248 248 248 248 248 248 249 249 250 249 248 248 248 248 249 249 248 248 248 248 248 249 248 247 247 248 249 248 248 248 248 248 250 250 249 249 249 249 249 249 250 251 251 251 251 251 250 250 251 251 252 252 253 253 253 253 252 252 253 253 254 254 255 255 255 256 256 256 256 256 257 258 258 258 257 257 257 258 258 258 259 261 263 264 265 265 266
249 249 247 245 245 247 248 245 245 247 248 248 248 247 248 248 248 248 248 248 249 248 247 248 248 248 248 248 247 248 247 248 248 248 248 248 248 248 249 249 250 250 251 250 250 251 252 251 251 251 251 252 252 253 253 253 252 253 253 254 254 254 255 255 255 256 256 256 256 256 257 257 257 256 256 257 258 258 258 257 257 257 257 259 261 262 261
247 247 246 243 242 243 245 246 246 247 247 247 247 247 247 247 247 247 246 247 247 247 247 248 247 246 246 246 246 246 247 247 247 248 248 248 248 249 249 249 249 249 250 250 249 250 251 250 250 250 251 252 253 253 253 252 252 252 253 253 254 254 255 255 255 255 255 255 256 256 256 256 256 256 257 257 257 257 257 257 257 256 257 257 258 260 261
246 246 246 246 246 246 246 246 246 246 246 247 247 246 246 245 245 246 246 246 246 246 246 247 247 247 246 246 246 246 246 246 247 247 247 248 249 248 248 248 248 249 249 249 249 249 249 250 250 250 251 252 252 253 252 252 252 252 252 253 253 253 253 254 255 255 254 255 255 255 256 256 255 255 256 256 257 256 255 255 255 256 255 256 256 256 257
246 246 246 245 245 245 244 244 244 245 245 245 245 245 245 245 244 244 245 246 245 244 245 246 246 245 246 245 245 245 245 245 246 247 247 248 248 248 248 248 248 248 248 248 248 249 249 249 249 249 250 252 252 252 252 252 252 252 252 253 253 253 253 254 254 254 253 253 254 254 254 253 253 253 254 253 255 254 254 253 254 254 254 254 256 254 253
246 245 244 243 244 244 244 244 244 244 244 244 244 244 244 245 243 243 244 245 244 244 245 245 244 244 244 244 245 245 245 246 247 247 247 247 247 248 247 247 247 247 247 248 248 248 249 249 249 250 251 252 252 252 252 251 251 252 252 252 252 252 253 254 254 253 252 252 252 252 251 252 252 253 253 253 253 252 252 251 251 252 253 253 253 253 253
243 242 241 242 244 243 243 243 244 244 244 244 243 243 244 243 242 243 243 244 244 244 244 243 243 243 244 243 243 243 244 245 245 245 246 246 246 246 247 247 247 249 248 249 249 249 249 249 248 250 251 252 252 252 252 251 251 251 251 251 251 251 252 253 252 253 252 252 251 251 251 251 251 251 251 252 251 251 251 251 251 252 252 252 252 252 253
241 240 241 241 242 242 243 243 243 243 243 243 243 244 244 243 243 244 244 244 244 244 244 244 244 243 243 243 242 242 243 244 242 243 245 245 246 246 247 247 247 247 247 249 249 249 249 248 249 250 251 252 251 252 251 251 251 251 250 250 250 250 251 252 252 251 251 251 250 250 250 250 250 250 250 252 251 251 250 251 251 251 252 252 251 252 253
241 240 242 243 243 242 242 243 244 243 243 243 244 244 243 243 242 243 243 243 242 243 243 244 243 243 243 243 242 242 243 243 244 245 244 244 245 246 247 247 246 246 248 248 249 249 249 249 249 250 251 251 251 251 251 251 251 251 250 250 249 250 250 250 251 250 250 250 249 250 249 250 250 250 251 251 250 250 251 251 251 251 251 251 251 252 254
245 245 245 245 245 245 245 244 243 242 242 242 242 241 243 242 242 242 244 244 243 245 246 245 244 243 243 242 242 242 242 242 243 244 244 244 245 246 246 247 247 247 247 248 248 248 249 249 250 251 251 251 251 251 251 251 251 250 249 249 249 249 249 250 250 249 249 248 249 248 249 249 250 251 251 250 249 250 250 250 250 251 251 251 251 252 252
244 244 245 245 245 243 242 242 243 242 242 242 242 242 242 242 242 242 242 243 245 246 246 246 245 243 243 243 243 244 244 244 244 244 244 245 245 246 246 246 246 246 247 247 249 249 249 250 251 251 250 250 250 250 250 251 251 249 248 248 247 248 249 249 248 248 248 247 248 249 248 250 250 250 250 249 249 248 248 249 249 250 250 250 251 251 251
245 244 244 244 244 243 242 243 243 243 242 242 242 242 243 243 243 243 244 244 245 245 244 244 243 242 243 243 244 244 243 244 244 244 245 245 245 245 245 245 246 246 247 247 248 249 249 250 250 250 249 249 249 249 250 251 250 248 247 246 247 247 248 247 247 247 247 247 248 248 249 248 246 247 249 247 248 248 249 248 249 250 250 250 250 250 250
245 245 243 243 243 242 242 243 243 243 242 242 243 244 244 244 244 244 243 244 245 245 245 244 243 244 245 245 244 244 244 244 244 244 244 244 244 245 245 246 246 246 246 246 248 248 249 250 250 249 248 249 249 249 250 251 250 247 246 246 246 246 247 246 246 247 247 247 248 246 246 246 246 246 247 247 247 247 248 249 249 249 249 249 250 250 250
245 245 245 244 243 243 243 244 244 244 243 243 243 244 245 245 245 244 243 244 245 246 245 245 245 245 245 245 245 245 245 244 244 244 244 244 245 245 246 247 247 247 247 248 248 248 249 249 249 248 248 248 248 249 250 250 249 247 246 244 244 245 246 245 246 246 246 247 246 247 246 246 246 246 247 247 247 248 248 249 249 249 249 249 249 249 249
244 244 243 243 243 243 244 243 244 244 244 244 244 244 245 245 244 244 244 245 245 246 245 245 245 245 245 245 245 245 245 245 245 245 245 245 246 247 248 248 248 248 248 248 248 248 249 249 247 247 247 247 248 249 249 249 248 245 244 244 244 245 244 246 245 245 245 245 246 247 245 246 246 247 247 247 247 247 247 247 248 248 248 248 248 248 249
242 243 243 243 243 243 243 243 242 243 244 244 244 245 245 245 244 244 244 244 245 245 246 246 245 245 246 245 245 245 246 246 246 246 246 246 247 247 246 247 248 247 247 248 248 248 248 247 247 246 246 246 246 249 248 248 245 243 243 244 244 245 244 245 245 245 244 245 245 244 244 245 245 245 246 246 246 246 246 247 247 247 247 247 248 248 248
242 243 243 243 243 243 243 243 243 242 243 244 245 245 245 245 245 244 244 244 244 245 245 245 246 246 246 246 246 246 246 246 246 246 245 245 245 245 246 247 248 247 248 248 248 247 246 244 245 246 245 246 247 250 249 246 242 242 242 243 243 244 243 244 244 244 244 243 243 242 243 244 244 244 245 245 245 246 246 246 247 247 247 247 248 248 248
242 242 242 242 242 242 242 242 242 242 242 243 244 244 244 244 244 244 244 243 243 244 244 244 245 245 245 245 245 245 245 246 246 245 245 246 245 245 245 247 247 246 247 247 247 246 246 244 244 242 247 249 248 250 248 243 240 241 241 242 243 243 243 243 243 243 243 242 243 243 242 244 243 244 244 244 244 245 245 246 246 246 247 247 247 247 248
241 241 241 241 241 242 242 242 242 242 241 242 243 242 242 242 243 243 242 242 242 243 243 243 243 243 244 244 244 244 245 245 245 245 243 245 246 245 244 244 245 246 247 246 246 245 245 244 244 246 249 249 249 249 245 241 240 241 240 242 242 242 243 242 243 242 242 243 244 242 243 244 243 243 242 244 244 245 245 246 246 246 247 247 247 247 248
240 240 240 240 240 240 240 240 240 240 241 241 241 241 242 242 242 242 241 241 241 242 242 242 243 243 243 243 242 243 244 244 244 243 242 243 245 245 244 246 246 245 246 247 245 245 244 244 246 248 249 249 249 249 243 241 240 241 240 241 240 241 241 241 243 242 243 242 242 243 243 243 242 243 242 243 245 245 245 245 246 246 247 246 247 247 247
238 238 238 240 239 239 240 239 240 239 239 240 240 242 241 241 241 241 241 240 240 240 241 242 242 242 242 242 242 242 241 242 243 242 243 244 243 244 244 245 244 246 246 246 244 245 243 247 248 248 248 248 248 246 241 241 241 239 239 240 239 242 241 241 241 241 241 242 243 242 242 242 241 242 243 242 243 245 246 247 247 246 246 246 246 247 248
237 238 238 236 237 238 238 237 237 238 238 239 240 241 242 240 240 240 239 239 239 239 239 240 240 240 241 240 240 240 242 243 244 242 240 241 240 242 244 245 245 245 246 245 244 245 244 246 247 247 248 248 248 241 239 238 239 238 240 239 240 240 241 240 241 240 240 240 243 245 246 245 242 243 243 244 244 244 244 245 245 246 246 247 247 248 248
237 237 238 237 237 237 235 234 235 238 237 239 238 240 240 239 239 239 239 239 238 238 238 238 239 239 239 238 237 238 239 239 242 244 238 237 239 240 243 241 244 245 246 246 245 246 246 246 247 247 247 247 245 240 240 238 239 239 239 240 239 240 240 241 240 240 240 241 242 240 242 242 241 241 242 243 243 244 244 245 245 246 246 246 246 247 247
236 236 236 236 236 235 235 237 238 239 239 238 237 239 239 239 239 239 238 238 237 239 239 238 237 238 237 238 238 237 236 238 240 242 241 241 243 242 242 243 244 245 245 243 243 243 245 246 246 246 246 246 242 241 240 239 240 241 241 241 240 241 241 242 241 240 240 241 241 242 242 243 242 241 242 243 244 244 245 245 245 244 245 247 247 247 247
237 236 238 238 239 239 238 239 239 239 240 238 239 239 238 237 239 240 240 239 239 240 240 240 240 240 240 238 236 237 236 236 238 239 240 241 239 241 242 242 243 244 245 244 240 243 244 245 244 244 245 241 241 240 240 241 239 240 241 242 242 241 243 244 246 246 244 243 243 242 243 243 243 244 245 244 244 245 245 245 245 247 248 248 246 246 246
237 238 238 239 238 239 236 237 239 240 238 239 238 239 238 237 238 240 239 240 239 239 240 240 241 240 239 236 238 237 237 237 238 242 242 242 240 243 244 243 243 244 244 243 241 242 241 240 240 242 243 242 242 239 240 241 240 242 243 241 241 242 242 243 242 242 240 242 242 243 242 242 241 242 241 243 244 244 244 245 245 245 244 245 245 245 246
238 238 238 237 237 237 238 238 238 238 237 238 236 237 238 238 239 239 240 241 238 239 238 238 240 240 237 239 240 240 238 241 241 240 242 242 241 240 242 244 242 242 241 240 241 240 240 241 243 244 244 243 240 240 243 244 243 241 241 242 243 241 243 242 243 242 241 242 243 242 243 242 242 243 243 243 243 244 244 244 244 244 245 245 245 245 245
Wind_Speed
10 9 7 8 9 8 10 11 10 11 11 10 8 8 7 6 4 5 6 5 3 5 2 3 3 2 0 0 2 6 3 2 1 3 6 9 10 9 8 7 7 7 8 7 6 4 4 4 5 5 5 5 4 4 5 5 5 6 5 7 6 6 5 6 4 3 3 3 3 3 4 4 5 5 5 4 4 4 4 5 4 4 4 4 4 5 4
8 7 9 8 8 10 11 10 11 11 9 8 6 8 7 6 9 7 8 9 6 7 5 2 3 3 2 3 3 5 8 4 3 0 2 5 6 7 8 8 6 5 4 3 2 3 5 6 6 6 5 5 5 6 5 4 5 4 5 5 6 5 5 5 4 3 3 3 3 3 3 4 4 4 4 5 5 6 6 5 5 5 5 4 4 5 4
8 6 9 11 9 7 9 11 11 11 7 4 4 6 7 4 4 3 7 7 8 3 1 0 1 1 1 6 6 7 8 9 7 4 3 2 3 4 4 4 4 4 5 4 3 2 2 3 6 6 5 4 4 4 4 4 4 4 5 6 5 5 5 3 3 3 3 3 3 5 3 4 3 3 4 3 4 5 5 5 6 6 5 6 6 6 5
10 7 7 10 8 8 10 11 10 9 9 7 4 4 5 5 6 6 6 4 6 1 3 2 4 9 8 9 8 7 6 11 12 9 8 8 9 10 9 9 9 8 7 6 4 2 2 2 1 2 5 5 5 5 4 4 4 4 5 5 5 5 3 3 3 4 4 4 5 5 4 5 4 3 3 4 5 4 4 5 5 4 5 5 5 5 5
9 7 7 8 10 9 8 6 7 12 9 8 4 3 4 5 5 4 4 7 3 2 2 4 6 8 9 11 11 10 10 9 11 12 9 10 10 11 10 11 10 9 9 8 7 3 1 2 2 2 0 2 4 3 3 3 4 4 4 5 5 4 3 3 3 3 3 4 4 4 4 4 4 4 6 6 7 7 6 5 3 5 5 5 5 4 4
9 7 6 6 7 12 8 1 5 4 4 7 7 7 7 6 3 5 1 4 5 1 6 5 5 8 8 8 9 10 9 8 9 10 10 10 10 10 10 10 9 9 8 8 8 6 5 2 2 4 4 3 2 3 4 4 4 3 4 4 4 4 3 2 2 2 3 4 5 4 3 3 3 4 6 6 5 4 4 5 5 5 5 6 6 5 5
7 5 4 7 12 10 6 6 5 5 9 6 7 9 5 9 12 13 9 10 9 10 5 8 11 12 10 9 11 12 13 12 10 9 10 11 10 10 11 12 11 11 10 8 7 6 5 2 2 1 3 3 5 5 6 6 5 5 4 4 4 3 3 2 2 1 2 2 4 4 3 2 3 4 4 3 4 4 4 5 5 6 6 7 6 6 6
5 6 6 12 7 1 3 7 5 5 2 3 2 1 8 11 12 9 6 8 10 10 8 7 6 10 11 11 14 14 14 15 13 12 11 11 11 11 10 10 11 12 12 10 9 8 7 6 1 2 2 3 5 5 5 7 6 6 6 5 4 4 4 3 2 1 0 2 3 3 4 3 4 4 3 4 4 3 3 3 3 3 3 3 5 6 6
10 7 10 12 5 11 10 5 5 7 3 6 3 3 4 10 12 12 8 9 11 11 10 6 2 1 3 9 10 15 16 16 15 14 13 12 11 10 10 10 10 10 10 11 11 9 8 8 8 6 3 5 6 7 8 6 7 6 6 6 5 4 4 3 3 2 1 0 2 3 4 4 4 3 3 3 3 3 3 3 3 3 3 3 4 5 6
9 9 8 5 5 10 6 3 6 6 6 6 4 1 2 9 14 14 10 10 12 13 13 11 12 10 0 5 6 13 16 15 15 14 13 13 12 12 11 10 9 10 10 10 11 10 9 10 10 7 4 7 8 8 8 7 7 7 7 7 6 5 4 4 3 2 2 1 0 2 3 4 4 3 3 2 3 3 3 3 3 3 3 3 3 4 5
5 8 10 8 8 4 1 4 9 10 10 7 9 2 3 6 13 14 12 11 12 11 13 14 13 3 2 2 5 11 14 14 14 14 13 14 14 14 14 14 13 13 13 12 12 13 14 15 14 11 8 9 10 10 9 8 8 8 8 7 6 5 4 3 3 3 2 2 2 2 3 4 4 4 3 4 3 3 3 2 3 3 3 3 3 3 4
10 8 7 8 4 5 2 8 11 14 11 11 3 6 6 8 13 14 13 12 12 13 13 12 8 7 2 3 6 11 12 12 12 13 14 14 14 13 13 13 11 10 11 12 15 16 15 14 13 13 10 11 12 10 9 8 9 8 7 7 6 6 5 5 4 4 3 3 2 2 4 3 4 4 3 3 4 4 4 4 4 3 3 3 3 3 3
13 16 11 5 1 3 7 11 17 15 14 3 6 10 2 7 11 12 11 11 12 12 11 12 7 8 7 7 8 11 12 13 13 14 13 12 12 13 13 13 11 10 11 12 13 13 11 12 12 11 10 10 11 9 8 9 9 7 7 7 7 6 5 5 4 4 4 3 3 4 4 3 3 3 4 4 4 4 4 4 4 4 4 4 4 4 3
8 7 9 9 1 2 8 14 11 13 5 4 5 4 7 6 10 11 10 10 11 11 9 9 7 8 10 10 10 12 13 12 12 13 13 13 13 13 13 14 13 10 10 11 12 12 12 12 12 11 10 12 10 10 10 11 9 9 8 8 7 6 5 4 4 4 4 4 3 4 3 3 4 5 4 4 3 3 3 3 4 4 5 5 5 4 4
4 2 1 3 7 1 17 20 3 9 2 3 2 8 6 8 9 10 8 9 10 12 10 10 10 10 11 11 12 12 12 12 13 14 15 15 15 14 15 15 14 11 9 9 10 10 8 9 9 9 9 11 9 8 10 9 7 6 5 4 4 3 3 3 4 4 4 6 5 5 5 5 5 5 4 3 3 3 4 3 4 4 4 5 5 5 5
1 3 3 3 3 6 14 13 6 6 5 5 7 8 7 8 7 9 7 8 9 11 10 11 10 9 11 12 13 12 12 13 13 13 13 13 13 13 13 13 13 12 11 10 9 10 9 8 8 7 7 7 6 7 8 6 5 5 5 5 4 4 4 5 6 6 6 6 7 6 6 5 4 5 5 4 3 3 3 3 3 4 4 5 5 5 6
1 1 1 1 5 3 7 9 8 6 7 6 7 7 6 7 7 9 7 9 10 10 11 10 10 9 10 11 11 12 12 12 13 14 14 14 15 15 15 15 15 13 12 12 10 10 10 11 10 10 10 10 10 11 9 8 8 7 7 7 7 7 7 7 7 6 6 6 6 6 5 5 5 5 4 4 4 3 4 4 4 4 4 5 5 6 6
4 6 6 5 4 5 7 7 7 8 8 8 7 7 7 7 8 8 8 10 10 10 10 10 9 9 11 11 11 12 12 12 12 13 13 14 14 14 14 15 16 14 12 11 11 11 11 11 10 10 10 10 11 9 8 8 8 8 7 7 8 8 8 7 8 7 7 6 6 6 6 5 4 4 3 4 3 3 4 3 4 4 5 5 5 6 6
1 2 6 6 4 4 6 6 7 7 8 8 8 7 8 8 9 9 9 9 10 10 9 9 10 10 10 10 10 10 10 11 12 13 14 14 14 14 15 14 14 12 12 10 11 11 11 11 10 10 10 10 9 8 8 8 8 8 7 7 7 8 9 8 9 7 8 7 7 6 6 5 4 4 3 3 3 3 3 3 3 3 4 5 5 6 6
1 1 3 6 3 4 4 6 8 10 9 9 8 7 7 8 8 8 10 10 8 9 8 10 10 10 10 10 10 10 9 10 10 11 12 13 13 13 13 13 13 10 10 10 10 10 9 10 10 10 9 10 10 9 8 8 8 8 8 8 7 7 7 7 7 7 7 9 8 6 6 6 5 5 4 4 4 4 3 3 2 2 3 4 4 6 6
1 3 1 12 4 7 2 9 9 10 8 9 9 9 9 9 10 10 9 9 9 8 8 9 9 9 9 9 10 9 9 9 9 10 10 10 10 10 12 12 12 10 10 9 9 8 8 9 8 8 8 8 9 10 9 9 9 9 8 8 7 8 7 6 6 7 6 6 6 6 6 5 4 3 4 4 4 4 4 0 1 2 3 3 5 5 6
0 1 5 9 4 2 3 10 11 13 8 8 9 9 9 10 11 11 11 10 8 7 7 8 8 9 9 9 9 9 7 7 9 10 10 9 9 9 9 8 9 9 8 7 8 8 8 8 7 7 7 8 8 8 8 8 9 9 9 7 7 7 7 7 6 7 6 6 5 5 5 6 6 5 6 7 5 4 3 8 11 9 7 4 5 6 6
0 4 7 4 5 10 9 8 11 13 7 8 9 10 10 10 10 10 11 11 9 8 8 7 8 8 9 10 9 8 7 7 7 8 8 8 8 9 9 9 8 8 5 5 5 6 7 7 7 6 6 7 8 8 9 9 9 9 9 6 6 5 6 6 8 7 6 5 5 5 5 5 6 6 6 5 10 10 10 10 9 10 9 10 13 13 9
10 8 6 7 5 8 11 12 12 9 6 9 10 9 9 9 10 10 9 9 10 9 8 7 7 8 9 9 9 9 9 8 8 9 8 7 7 7 6 6 7 7 6 5 5 6 5 5 5 4 5 6 7 8 8 8 9 8 8 7 6 5 5 6 7 7 6 6 5 5 4 4 5 5 6 6 5 8 12 11 11 12 11 12 14 14 15
8 9 10 8 8 11 12 12 10 4 9 10 9 10 11 11 10 10 10 8 7 8 8 8 8 7 9 9 8 8 8 8 8 9 8 7 8 7 7 7 8 7 6 4 4 4 4 4 4 3 4 6 7 7 8 8 8 7 8 7 6 6 6 6 6 6 5 5 5 5 5 5 5 5 5 6 7 7 7 10 12 13 14 14 15 16 16
9 8 8 10 11 10 6 6 3 7 13 11 10 9 10 10 11 11 9 9 7 7 7 8 8 8 8 8 8 9 8 8 9 8 5 6 6 6 7 7 8 7 5 4 5 4 3 4 4 3 4 6 7 7 7 7 7 6 6 7 6 6 6 6 6 5 5 6 6 5 5 6 5 6 5 5 5 6 7 6 6 7 9 12 14 15 15
6 6 10 11 6 5 6 7 8 12 11 9 8 10 10 10 10 8 8 7 7 7 7 7 7 8 7 6 7 7 8 8 7 6 5 5 6 6 6 7 7 7 5 3 4 4 5 4 4 4 6 7 7 7 8 9 8 7 7 8 6 6 8 7 5 5 5 6 5 5 5 5 5 5 5 5 5 5 6 7 7 7 6 7 9 13 11
2 2 4 5 10 10 12 12 11 10 9 8 9 9 9 8 8 8 8 8 8 8 7 6 7 8 9 8 8 8 7 8 8 7 6 6 6 6 7 8 7 6 3 3 3 3 4 4 5 5 6 8 9 8 8 8 7 7 7 7 6 6 6 6 6 5 5 5 5 5 5 4 5 5 5 5 5 5 6 6 5 6 6 6 6 8 12
2 5 5 6 9 10 10 9 9 7 7 7 7 6 7 8 9 8 8 7 8 8 7 8 6 6 6 8 7 8 8 8 9 9 8 7 6 6 6 7 7 5 2 3 3 4 4 5 6 7 7 8 8 9 9 8 7 8 7 7 6 5 5 6 5 5 5 5 4 5 5 5 5 3 4 4 5 4 5 4 5 5 6 7 7 7 7
8 6 7 7 7 6 7 7 7 7 7 7 8 7 6 6 7 6 7 8 7 7 8 8 8 7 6 6 6 7 9 9 8 7 7 6 6 6 6 6 6 3 2 3 5 6 6 7 7 7 8 8 9 8 8 7 7 7 7 7 6 6 5 6 5 4 4 4 4 6 4 3 3 3 3 3 4 4 5 4 5 5 6 6 7 7 10
9 8 9 7 4 4 6 7 6 6 6 7 7 7 7 6 5 6 7 8 7 7 8 7 7 8 7 8 7 6 7 7 6 5 6 5 6 5 5 4 4 4 4 5 5 6 6 7 7 7 8 8 8 8 8 7 7 7 6 6 5 8 10 9 7 5 3 3 4 4 3 4 4 5 5 5 4 4 4 4 4 4 5 5 5 7 7
11 10 7 2 3 7 7 4 5 6 6 6 7 9 9 10 10 11 10 8 8 8 8 8 7 7 8 7 7 7 7 6 6 4 4 4 5 5 4 3 3 4 4 4 5 6 6 6 7 7 7 8 8 8 7 7 6 6 5 5 6 5 6 10 5 6 5 5 4 4 6 4 5 4 3 4 4 5 4 5 5 5 5 6 6 6 7
9 12 5 7 9 7 7 5 7 10 9 9 8 6 6 6 6 7 7 8 8 8 7 7 7 6 7 7 6 6 6 6 4 3 4 5 5 5 5 3 3 3 3 4 5 5 5 7 7 7 7 8 8 8 7 7 6 5 5 5 5 5 5 6 6 4 4 4 5 5 4 4 4 4 4 5 5 5 4 4 5 5 5 6 6 6 6
4 4 8 8 6 9 11 12 7 8 9 6 6 6 6 6 5 7 7 6 6 7 6 7 6 7 6 6 6 5 5 5 5 6 6 6 6 6 5 4 4 4 3 3 5 5 5 6 6 6 8 8 7 7 7 7 5 5 5 5 5 4 4 4 5 3 4 5 5 5 4 5 4 5 5 6 5 4 6 5 6 6 6 6 6 6 9
5 6 6 7 6 7 7 8 8 8 7 9 9 6 6 5 5 6 6 7 6 7 7 6 5 5 5 5 5 4 4 4 4 5 6 5 6 6 5 5 5 5 3 3 5 6 6 6 6 7 7 7 7 7 7 7 5 5 5 5 5 4 4 4 4 4 4 4 4 4 5 5 5 5 5 5 4 5 5 5 5 6 5 7 7 7 8
4 6 6 6 7 7 5 7 7 6 7 6 6 7 7 6 7 6 6 7 6 7 7 7 6 6 6 5 6 6 6 5 4 5 5 6 6 5 4 5 6 6 5 3 5 7 7 5 10 12 7 5 6 6 6 6 5 4 4 4 4 4 4 3 3 2 3 3 4 4 3 5 5 5 5 5 4 4 5 5 5 5 5 6 6 7 8
3 5 6 5 6 6 7 6 6 6 6 6 6 7 8 8 6 5 5 5 5 5 5 4 5 5 6 6 5 5 4 4 4 4 5 5 5 4 4 4 6 6 6 5 7 8 7 6 10 12 6 4 5 5 6 10 4 4 3 4 3 4 3 3 3 4 4 3 4 4 5 5 4 4 5 4 5 5 4 5 6 5 4 5 6 6 8
5 4 5 5 5 7 7 6 5 6 8 10 8 6 8 7 6 6 6 6 5 5 4 4 4 5 5 4 4 4 4 4 4 5 5 5 4 4 4 5 6 6 6 5 7 7 6 8 10 7 5 4 5 5 6 10 7 4 3 3 3 3 4 3 4 5 5 4 5 4 4 5 5 5 5 4 4 4 6 5 6 5 6 6 6 6 7
8 6 5 6 5 6 7 6 5 5 5 9 9 8 6 5 5 6 6 6 6 5 6 6 6 6 4 5 6 6 5 5 5 7 7 8 5 3 2 2 3 3 3 5 7 5 6 7 6 5 4 5 6 6 6 7 7 3 3 2 3 2 3 4 4 5 5 5 4 5 5 5 4 5 5 5 5 6 6 7 7 7 6 6 6 6 7
7 7 7 7 7 7 7 8 7 7 6 5 7 8 6 6 5 6 6 6 5 4 5 5 6 5 6 6 6 6 7 7 6 6 8 6 4 4 2 0 0 3 4 7 5 4 6 9 6 4 4 5 5 4 4 6 5 4 4 3 3 4 3 4 4 5 5 5 6 6 6 6 5 6 6 6 6 6 6 7 6 6 6 6 5 6 7
6 6 6 6 7 6 6 7 8 8 7 7 6 6 5 5 6 6 7 7 7 7 6 6 6 5 6 7 7 8 8 7 6 6 6 5 2 2 2 3 3 4 5 5 5 5 6 5 4 4 5 5 5 5 4 5 4 3 4 4 4 5 5 5 5 5 5 5 6 5 5 5 5 5 6 5 5 5 5 5 5 5 5 6 7 6 6
6 5 6 6 6 6 6 6 6 7 7 5 5 5 5 5 5 5 6 6 6 6 6 6 6 6 6 6 6 6 6 5 5 5 5 3 3 1 3 3 3 5 8 8 5 5 4 3 4 4 5 5 5 6 6 5 4 4 5 5 4 4 4 4 4 4 5 4 3 3 4 4 4 5 5 5 5 6 6 6 6 6 5 5 6 6 7
7 7 7 7 7 7 6 6 7 7 9 7 4 4 5 6 5 5 6 6 6 6 6 5 6 6 6 5 6 6 6 6 6 5 5 4 5 6 3 3 4 5 9 6 5 5 5 4 5 3 7 7 7 8 6 4 3 4 4 4 4 3 3 2 3 3 4 4 5 5 5 5 5 5 5 6 5 5 5 6 6 7 6 6 6 7 7
8 6 6 6 7 7 6 6 6 6 7 8 7 7 7 5 3 5 7 8 8 6 6 7 7 7 6 6 6 5 5 5 5 4 5 6 4 1 3 3 4 6 9 7 5 5 5 5 5 6 9 10 10 8 5 4 3 4 3 4 4 4 3 4 4 4 5 5 5 5 5 6 5 5 4 5 6 6 5 5 6 6 7 7 7 7 7
7 6 6 7 8 6 6 5 5 7 7 8 8 8 6 4 5 5 6 7 7 7 6 5 6 5 5 4 4 5 5 5 5 4 4 5 4 1 1 3 6 5 7 8 6 5 5 5 7 10 9 10 11 7 4 4 4 4 3 4 4 4 4 3 4 4 4 4 3 4 6 4 4 4 5 5 6 6 6 7 7 7 7 7 7 8 8
7 6 6 6 6 5 5 5 6 5 6 7 7 4 2 3 5 7 5 6 7 6 5 6 7 7 7 7 6 7 7 7 6 5 6 6 4 4 5 6 7 6 10 10 5 6 6 9 11 11 11 11 10 7 5 4 5 4 4 5 4 5 4 4 3 4 4 4 5 5 5 5 4 5 5 6 6 6 6 7 8 6 6 6 7 7 8
6 6 7 7 7 7 6 5 4 5 5 4 6 7 6 5 6 5 6 7 7 7 7 6 7 7 6 6 6 5 6 6 6 2 3 3 3 4 6 7 7 9 8 7 7 6 7 7 8 11 11 11 9 5 4 4 5 4 5 3 4 3 5 4 4 4 5 4 6 6 6 6 5 6 7 5 6 6 5 6 6 6 6 8 7 8 8
6 8 9 8 9 10 7 6 4 5 4 6 5 7 7 6 7 7 7 5 6 6 6 5 6 5 5 5 5 5 6 2 5 6 1 1 3 3 5 4 7 9 10 7 8 7 9 10 10 10 10 9 6 4 5 4 3 4 4 4 4 5 4 5 4 4 4 4 4 4 5 5 6 4 5 5 6 6 6 6 6 6 6 6 7 7 7
7 8 9 8 5 7 6 4 5 6 5 4 4 6 5 6 8 7 6 6 8 7 6 7 8 7 5 5 4 4 5 4 5 6 3 5 7 6 6 6 8 8 7 5 6 6 7 9 9 10 9 7 4 5 5 4 4 5 5 5 5 5 4 5 6 5 5 5 4 5 5 6 6 5 6 6 6 6 7 6 6 5 6 7 7 8 7
6 4 5 5 5 5 4 5 6 5 5 5 5 5 4 4 7 7 5 5 6 7 6 6 6 6 5 4 3 4 3 4 5 6 7 8 6 7 7 6 6 8 7 6 5 6 5 8 7 8 7 4 5 4 5 5 4 4 5 6 4 5 5 6 5 6 5 6 5 4 5 6 6 6 7 6 6 6 6 6 6 8 11 9 8 7 7
5 5 6 6 5 6 5 6 7 6 5 6 5 4 3 4 5 7 6 6 6 6 7 8 6 5 5 3 4 4 4 3 5 6 6 6 5 6 6 6 6 6 7 6 5 6 6 5 5 6 6 5 5 4 4 5 5 5 5 6 4 5 5 7 6 6 5 5 5 5 5 5 4 6 5 6 6 6 6 7 7 6 6 6 7 7 7
7 6 6 6 6 6 6 6 6 6 5 5 4 4 5 4 5 6 6 4 4 5 5 7 10 4 1 4 5 5 4 5 6 4 5 7 5 6 7 6 6 6 6 6 6 6 6 6 6 6 6 6 6 5 5 6 6 6 5 6 5 5 6 7 6 5 5 5 5 5 5 5 5 6 6 6 5 6 6 6 6 7 7 7 7 7 8
Wind_Direction
267 263 277 289 290 280 283 282 285 284 273 270 250 247 247 263 242 280 352 345 321 300 265 222 225 245 338 309 130 127 96 17 66 138 156 157 157 158 153 154 156 158 160 162 155 146 142 133 134 136 135 129 121 112 115 126 123 118 124 115 113 118 116 112 115 118 114 96 86 84 73 67 60 51 50 51 49 47 46 41 32 22 15 8 15 15 13
275 289 292 298 304 299 301 293 279 270 274 267 263 271 264 231 251 269 286 300 283 265 290 242 245 261 214 154 129 75 84 71 6 324 165 160 153 153 154 152 150 147 138 108 110 140 152 158 150 149 147 147 147 140 135 129 119 110 106 101 108 105 102 108 114 114 113 104 98 93 76 69 65 58 53 47 41 38 33 27 21 15 15 12 20 16 12
277 285 291 287 284 291 288 294 294 277 263 267 254 254 256 226 267 248 267 264 277 287 120 16 340 11 336 81 77 95 95 85 66 20 12 44 83 88 80 71 63 53 51 58 87 126 197 182 171 164 154 146 134 125 134 132 124 113 104 106 93 98 102 90 86 85 86 82 86 73 69 74 70 67 60 60 60 54 41 29 18 11 5 9 12 1 5
283 275 275 279 284 282 278 278 279 282 260 253 235 218 231 206 229 242 235 268 267 306 10 23 38 49 32 33 30 50 68 91 83 51 24 25 25 27 27 34 36 36 38 36 41 32 18 350 320 184 158 156 153 162 147 140 122 110 104 105 107 101 99 89 73 71 67 60 58 49 46 45 45 50 57 58 54 49 44 33 24 14 12 11 359 352 353
260 273 275 281 280 280 267 238 243 253 257 238 233 229 267 239 254 255 202 238 238 181 182 108 55 61 46 44 18 8 14 23 83 78 36 23 23 27 24 24 25 23 19 11 6 12 85 151 181 281 52 147 179 136 128 111 105 105 103 101 101 99 87 82 79 80 78 75 69 56 42 36 32 34 38 39 34 27 25 11 9 16 8 2 356 349 346
269 273 279 281 281 256 237 215 185 168 231 251 247 253 234 247 164 224 198 320 338 276 152 121 98 79 64 64 49 33 17 3 17 69 64 35 21 16 18 17 13 10 9 1 357 349 328 303 223 198 167 175 119 103 105 100 105 97 102 91 92 98 88 76 68 83 96 99 94 80 60 50 42 45 48 43 30 16 4 5 11 6 1 357 348 347 343
250 238 274 288 249 257 269 246 234 243 256 247 238 249 37 17 11 358 351 13 9 347 349 105 116 107 101 82 60 38 23 20 21 28 53 45 28 18 10 6 5 7 1 352 352 349 358 351 282 174 151 147 123 118 128 117 106 102 81 84 71 62 72 61 51 48 79 99 106 102 93 79 61 57 54 47 40 15 20 7 3 357 353 347 339 334 332
250 233 218 247 241 253 332 313 286 273 209 240 168 350 62 26 24 3 14 4 354 355 33 74 103 121 128 94 59 36 21 20 16 25 33 40 42 32 20 14 15 16 11 4 1 356 351 359 41 147 173 136 129 124 109 113 104 94 89 81 63 51 48 36 26 6 64 125 117 111 105 95 79 64 52 44 42 13 28 3 355 346 343 328 324 322 320
239 223 232 243 303 310 292 296 32 5 17 356 44 214 83 28 20 11 2 359 357 351 352 360 1 241 182 73 49 26 15 14 19 31 31 30 37 39 31 30 31 27 18 8 3 8 9 14 2 9 95 107 107 101 87 78 82 78 76 70 54 43 35 21 6 355 333 317 122 117 111 99 83 69 58 36 36 9 31 1 0 352 329 323 312 314 314
211 234 246 251 234 241 230 88 71 51 3 300 301 164 108 33 12 15 12 7 357 348 344 340 327 311 154 54 28 14 1 12 10 20 27 25 27 29 28 30 41 39 31 19 11 13 13 17 13 4 69 98 93 77 73 66 68 65 59 52 38 30 24 10 350 341 344 339 34 93 95 86 76 62 54 45 37 9 22 350 352 335 314 315 310 302 308
216 210 229 230 238 239 205 34 331 329 326 343 288 93 228 42 357 14 13 7 0 357 347 330 324 300 109 81 31 3 355 9 13 12 20 24 24 24 23 22 22 22 24 26 18 19 21 23 4 2 38 64 70 67 55 54 53 52 39 26 17 9 0 360 343 335 353 356 12 39 72 69 68 56 34 25 5 7 1 342 331 313 315 310 302 300 288
232 238 229 227 209 230 7 320 321 312 318 295 228 209 220 12 354 8 11 11 1 352 348 335 11 13 108 51 7 353 354 12 15 16 13 18 21 24 23 24 30 32 31 32 31 26 22 12 359 11 26 56 60 59 54 48 48 36 19 4 351 347 350 351 349 348 4 5 8 34 56 62 60 45 25 29 12 8 357 349 333 332 325 308 307 300 294
235 229 237 249 258 85 17 333 313 313 291 270 188 216 54 335 345 4 6 8 2 355 356 3 32 36 21 358 349 348 3 12 14 14 14 15 18 20 22 21 19 33 36 41 40 32 21 13 12 13 31 50 54 49 47 49 38 17 357 347 344 344 342 346 346 349 357 4 12 36 37 42 60 53 36 32 9 8 353 347 343 334 329 325 319 312 302
236 231 231 229 211 75 320 308 306 300 345 175 201 54 241 270 344 357 4 4 2 355 359 360 359 351 355 358 357 359 11 15 12 10 10 10 15 18 18 19 22 26 35 42 43 39 26 18 17 21 38 51 46 43 42 35 14 356 352 345 338 333 334 336 341 343 360 360 6 30 16 25 50 50 41 38 13 6 357 355 350 336 330 324 322 321 313
323 237 204 61 248 16 357 319 350 3 92 26 272 285 321 19 355 351 355 7 356 356 345 349 345 348 355 360 358 355 4 14 12 10 10 12 9 9 9 11 15 19 29 35 42 44 41 36 31 25 49 67 63 55 47 25 2 349 335 324 315 310 317 336 350 351 355 6 12 21 12 13 37 43 31 29 14 21 15 14 4 351 343 332 330 329 330
349 324 243 229 358 300 350 22 68 29 34 347 339 353 338 4 357 353 339 356 353 353 346 340 339 350 354 354 357 355 358 9 8 7 9 10 9 7 10 10 7 11 22 28 31 33 37 41 46 46 60 75 73 70 51 20 4 351 339 334 332 342 356 360 2 355 0 4 15 16 13 11 28 40 27 23 20 20 18 14 15 5 355 347 341 341 338
52 288 319 254 200 350 23 43 66 61 35 25 358 10 357 353 355 352 343 341 344 347 347 340 341 348 357 351 353 355 351 359 6 4 4 5 6 5 5 6 5 9 13 16 19 28 31 30 33 33 36 46 42 38 17 7 2 4 352 351 352 360 3 1 2 359 359 6 13 12 5 12 26 31 25 24 24 7 30 18 24 13 356 355 348 339 338
151 81 44 80 65 47 50 55 48 37 26 20 16 11 9 357 357 348 341 341 332 341 350 349 344 350 345 349 353 352 351 355 359 360 2 2 2 5 4 6 6 5 5 9 13 17 24 28 29 33 33 38 40 25 9 4 2 3 3 5 2 1 359 359 358 356 2 5 12 5 3 9 22 24 33 22 30 12 35 22 25 13 359 353 345 338 334
9 277 33 22 58 84 63 47 37 33 28 14 10 6 6 356 347 350 341 339 333 338 353 345 343 336 347 349 351 350 347 354 356 357 358 358 358 359 2 360 3 3 5 6 9 10 14 17 23 26 29 32 30 18 12 5 0 360 8 18 10 5 0 354 352 356 6 5 3 358 357 2 9 18 16 27 28 26 36 38 21 1 356 348 340 332 330
266 205 96 3 341 113 86 51 23 9 7 4 10 3 357 352 348 347 346 337 334 344 347 347 339 338 342 351 348 350 347 349 351 353 352 353 353 355 358 353 358 3 7 6 7 8 11 10 16 21 23 23 17 13 9 5 2 3 17 18 14 4 358 357 344 354 359 360 0 354 351 357 356 2 7 10 17 3 2 349 4 337 329 320 320 326 314
265 190 102 1 289 203 141 43 32 9 357 353 349 356 354 351 351 346 346 346 330 347 344 344 338 337 339 347 345 342 339 341 346 346 342 349 351 352 353 350 351 0 4 4 3 8 11 9 12 21 21 20 12 12 8 3 5 5 10 12 15 11 4 358 344 357 355 354 350 352 342 350 346 346 346 349 352 346 351 344 294 282 289 310 318 292 285
263 30 354 355 358 290 308 347 359 349 352 356 347 344 351 350 348 347 339 338 337 333 350 339 338 336 330 337 338 334 328 333 331 332 334 344 348 350 350 346 341 350 360 2 358 4 6 5 4 18 19 21 10 9 6 2 8 4 1 2 17 13 9 358 348 356 352 349 345 351 343 343 345 344 356 357 358 359 348 8 354 337 331 314 317 340 350
255 22 347 356 308 285 281 312 337 328 355 351 350 349 343 343 340 341 336 330 333 337 341 345 334 333 330 328 331 324 324 323 325 317 326 344 345 348 347 343 338 338 344 5 355 359 358 359 356 8 16 19 12 7 9 3 8 2 356 357 4 10 7 358 356 350 343 339 343 348 335 340 339 345 342 359 10 16 18 1 349 350 356 355 356 354 349
283 297 324 334 305 286 302 313 313 311 18 356 346 338 340 334 334 331 333 326 322 328 333 335 340 333 327 328 329 323 321 322 324 325 336 354 342 342 339 332 324 332 339 5 356 357 346 351 350 1 13 17 15 2 4 360 5 2 356 355 355 359 1 348 351 349 346 346 345 346 340 341 342 352 360 351 352 7 4 359 359 2 2 1 359 356 351
294 314 314 314 309 294 290 291 292 339 18 356 339 336 337 333 329 332 323 326 323 325 335 329 331 338 328 325 324 320 320 316 320 328 345 347 343 343 333 333 330 332 332 356 337 336 337 340 352 360 25 20 17 3 2 356 0 356 353 351 344 348 354 350 351 343 343 345 344 344 338 348 348 5 4 6 352 341 355 358 357 0 359 359 357 353 350
303 307 323 322 300 283 290 335 315 0 348 343 332 329 330 330 321 326 322 319 326 333 334 328 325 329 331 322 322 319 319 319 331 339 335 345 337 335 331 331 322 318 324 346 327 327 336 351 358 5 29 22 15 3 0 356 356 350 348 346 339 345 348 347 351 344 350 346 346 343 346 351 356 4 0 355 342 343 338 343 356 353 354 356 354 349 348
309 348 351 329 324 318 348 356 316 322 322 326 325 324 322 321 324 318 316 315 319 340 326 319 327 319 320 319 317 316 320 325 332 334 338 331 330 324 320 317 317 314 319 339 318 341 5 6 10 16 26 19 8 2 1 357 351 349 352 346 344 337 346 353 353 348 351 345 339 336 349 354 357 355 348 348 353 352 353 352 344 343 335 342 346 348 347
294 23 22 317 295 303 306 311 307 309 314 321 325 321 316 316 321 328 328 335 338 335 329 326 333 334 330 332 332 322 331 335 338 333 332 327 324 327 321 320 315 309 309 330 318 345 356 5 17 24 21 15 3 1 356 352 349 355 354 345 346 342 347 354 360 354 349 342 340 348 348 348 356 348 346 348 353 357 359 350 339 330 327 333 331 336 345
340 314 298 271 277 287 291 292 297 301 310 321 322 313 315 325 329 332 335 332 332 329 325 332 331 326 324 321 331 329 331 332 331 332 324 318 324 323 325 320 315 305 329 330 338 353 4 14 21 20 18 6 359 358 354 350 357 356 349 344 344 339 344 347 353 350 344 342 339 357 356 0 347 335 343 355 2 9 1 350 340 338 329 326 330 332 343
316 313 301 295 289 284 296 300 304 308 313 321 324 324 325 323 329 326 327 332 333 325 320 324 326 322 331 321 325 331 323 321 317 312 316 322 322 323 325 323 311 297 299 346 3 3 11 19 17 15 8 357 357 354 349 351 356 349 342 340 335 340 333 340 342 342 343 331 350 356 347 356 341 347 345 5 14 7 357 349 346 338 332 336 346 344 345
312 311 305 295 281 290 298 301 296 295 303 314 320 320 324 334 324 318 328 329 325 320 323 323 317 316 327 327 315 312 313 303 304 309 317 324 324 322 323 324 342 344 349 355 2 4 12 17 15 9 355 351 356 351 353 352 351 346 347 344 337 336 339 354 357 353 340 338 343 348 351 6 355 5 357 11 5 1 354 345 337 334 338 338 343 346 339
315 318 307 290 332 317 311 295 304 308 315 316 327 332 338 340 334 328 324 328 326 322 320 323 323 329 324 317 321 319 316 318 313 318 322 320 317 317 315 318 327 337 333 5 14 9 11 12 10 356 344 355 353 353 352 350 344 349 347 342 337 333 336 351 354 355 350 352 350 359 1 1 0 4 352 6 8 356 347 345 346 344 342 343 341 341 332
326 334 342 329 332 321 310 315 326 323 328 327 319 313 315 311 304 305 306 309 316 321 317 311 315 313 317 319 318 321 319 316 302 299 332 331 326 323 324 327 331 339 352 28 23 10 12 10 354 342 350 354 352 352 351 345 340 344 339 339 330 326 332 340 355 349 347 2 3 5 356 352 354 355 2 5 358 351 345 348 340 339 338 336 331 325 328
299 264 269 289 295 308 316 317 327 314 312 305 305 312 311 310 308 303 304 303 307 307 313 312 311 313 316 320 316 314 329 343 353 347 334 325 323 328 334 343 338 346 352 38 28 15 9 1 345 350 352 350 346 347 345 338 348 350 342 337 327 321 325 326 348 353 1 6 359 351 351 352 2 0 2 359 353 349 351 346 342 340 334 333 328 326 332
274 280 284 281 282 283 290 296 303 300 302 309 315 313 303 301 306 302 304 317 314 312 310 311 313 317 316 314 322 323 338 336 320 316 316 317 321 324 331 350 356 9 8 54 35 15 0 345 348 354 354 342 342 343 341 333 358 353 338 329 319 316 323 331 351 359 3 355 345 354 360 3 1 359 360 359 352 349 342 341 341 339 339 333 328 331 333
290 301 302 302 297 292 298 296 291 290 294 297 297 301 305 304 306 310 317 314 307 306 311 319 324 325 326 329 333 332 327 324 326 318 316 319 317 318 330 4 5 14 4 21 40 9 348 342 353 356 351 339 340 341 335 341 6 357 331 327 313 316 318 333 337 346 359 3 1 359 354 360 359 352 355 353 349 347 346 344 340 339 334 328 327 330 327
293 296 298 299 299 305 300 296 296 302 302 300 304 308 308 309 304 297 302 306 306 304 307 312 327 330 322 311 303 304 299 306 321 316 310 315 316 327 339 1 12 12 359 7 357 353 341 345 347 349 343 331 335 332 333 353 1 353 318 321 313 328 330 341 349 4 2 1 2 358 356 356 357 354 352 353 349 344 343 339 332 331 327 328 329 328 327
313 309 306 308 310 306 299 295 299 305 307 308 305 304 304 305 310 318 316 312 311 317 323 321 311 303 299 300 310 313 311 322 326 325 324 325 330 338 357 27 15 4 7 347 333 332 335 334 341 343 328 336 335 335 335 349 1 347 329 325 324 325 340 354 355 2 4 1 357 359 6 356 355 346 348 344 344 341 342 336 335 334 334 333 330 327 323
320 318 312 308 303 301 305 305 307 303 302 302 304 306 306 312 317 318 315 313 316 328 332 326 324 319 321 336 337 331 330 333 329 327 332 332 330 353 9 53 47 10 314 307 318 319 319 330 342 333 335 333 330 332 333 343 352 348 318 312 322 344 349 358 5 359 359 358 351 1 2 355 355 350 345 344 341 341 342 340 336 332 329 325 325 319 317
316 319 317 319 318 320 318 316 312 308 305 296 295 301 311 321 318 316 309 311 317 328 324 319 324 327 331 335 334 329 322 323 321 328 331 328 321 343 351 166 106 3 319 325 312 303 321 337 337 325 324 324 323 320 332 345 352 334 336 337 342 348 357 357 2 8 1 1 357 355 355 353 348 344 341 340 342 340 335 333 330 325 319 316 309 309 311
304 309 312 311 304 303 301 304 307 306 304 304 304 300 314 314 315 318 320 317 317 323 322 328 324 318 321 324 319 313 315 312 315 316 316 308 320 9 352 334 3 351 335 328 323 323 325 331 333 328 327 319 310 318 332 349 350 335 338 339 348 355 360 358 3 2 356 349 351 348 339 336 337 339 336 337 331 326 318 319 317 316 313 311 311 313 311
304 306 304 304 301 303 304 304 305 308 305 297 296 307 308 299 294 301 303 302 303 308 314 316 314 311 305 304 299 298 295 291 309 319 326 288 282 282 333 323 356 340 327 325 314 319 320 326 329 326 312 311 312 327 353 358 348 343 344 344 344 348 351 347 347 336 336 331 319 318 325 329 330 330 332 333 331 330 326 323 318 317 310 307 306 306 304
315 317 315 311 306 307 309 310 308 305 304 301 297 309 305 298 292 305 313 312 308 312 311 306 309 316 314 317 321 324 323 332 329 324 313 279 241 218 222 278 323 320 327 324 323 323 326 329 324 313 313 323 328 335 357 355 344 344 338 335 335 336 330 322 323 324 330 335 341 341 342 335 339 335 330 325 317 314 312 313 313 312 312 310 310 308 308
305 303 301 303 303 304 307 301 303 311 313 313 322 319 313 305 311 326 326 322 319 317 319 320 324 323 324 325 321 314 315 324 320 329 321 314 327 259 214 246 304 320 331 328 327 324 321 318 310 308 319 328 330 339 356 344 338 336 332 333 328 327 326 330 331 339 337 337 331 326 316 319 318 310 307 310 312 311 308 307 305 304 306 309 306 304 303
293 289 292 292 291 300 298 304 309 313 307 303 307 309 309 313 321 329 322 315 309 307 309 306 306 303 301 297 283 278 283 289 279 283 288 298 322 300 254 325 325 328 321 326 319 315 309 307 311 319 323 327 330 340 350 338 331 327 327 324 320 320 321 319 318 315 314 308 302 300 302 300 295 299 296 297 300 304 305 309 305 307 308 308 309 310 309
285 284 282 294 296 290 284 285 288 296 299 304 302 294 279 304 316 314 308 304 302 295 287 291 290 286 285 285 284 284 278 273 264 232 225 225 238 282 321 323 321 322 318 321 313 313 307 313 320 325 324 324 325 334 340 327 327 323 319 314 310 306 305 302 300 298 295 296 299 302 300 300 305 298 295 289 289 293 294 295 298 298 293 291 294 296 300
286 297 297 288 285 285 295 298 296 296 311 324 330 323 321 322 317 310 304 294 279 278 286 284 280 274 271 262 264 285 302 318 311 258 205 255 281 293 292 307 309 310 316 315 312 311 310 316 318 317 317 315 315 322 310 308 304 294 296 293 292 287 288 286 289 288 291 292 294 296 300 300 294 291 291 290 286 283 283 293 294 295 298 300 299 300 303
301 299 298 300 296 297 315 318 341 330 317 298 287 294 303 310 315 312 307 297 295 294 290 277 269 273 274 265 247 233 229 240 317 313 200 266 273 287 307 308 304 307 309 309 303 297 298 296 298 301 304 307 302 293 293 285 285 288 288 289 293 293 291 292 293 289 287 288 293 294 290 285 279 277 274 278 280 282 283 286 290 297 299 299 297 301 304
287 282 286 289 286 294 303 313 318 314 300 293 301 291 298 311 309 305 304 312 317 315 307 302 297 290 284 266 247 232 231 215 212 257 292 323 318 309 297 294 296 299 298 290 292 291 289 294 301 305 306 304 299 293 290 292 292 296 295 291 286 284 286 283 277 268 266 273 271 275 272 276 279 283 287 286 285 287 289 290 289 288 292 297 303 304 302
295 313 313 316 310 312 310 313 299 279 284 304 290 289 307 328 327 318 319 320 310 305 300 299 303 303 292 290 278 261 249 237 249 261 273 280 287 286 285 290 290 292 293 293 290 293 294 305 310 308 306 303 301 302 297 294 292 286 281 283 286 288 283 281 282 284 280 280 280 275 276 276 280 283 286 289 288 288 287 286 289 293 301 302 296 298 300
306 299 287 280 281 278 263 248 255 276 289 280 276 286 300 305 285 289 300 303 313 320 319 316 305 291 287 276 277 277 263 261 256 256 266 272 269 276 279 283 285 288 292 291 291 293 299 303 300 299 301 301 299 298 294 287 283 285 287 288 286 286 287 287 285 282 278 273 272 276 279 280 282 285 283 281 289 290 291 292 295 297 299 296 298 297 297
261 261 272 277 273 275 279 276 261 251 247 261 270 285 296 286 299 302 299 284 289 300 313 321 319 301 270 304 305 298 283 271 274 283 275 276 279 279 281 283 288 292 289 288 289 289 289 289 294 299 298 294 289 285 285 290 289 286 285 281 284 282 278 278 278 276 278 278 279 281 280 281 282 282 283 283 284 288 292 293 293 292 294 293 294 295 296